Find Local Weather

World > North America > United States > Illinois

Matteson, Illinois Regional Weather

Lat: 41.51N, Lon: 87.74W
Wx Zone: ILZ014
Warning FLW WEATHER ALERT - (More Info. Click Here) Warning
Feedback
Expires:201809212100;;998465
ASUS43 KLOT 212009
RWRIL 

ILLINOIS REGIONAL WEATHER ROUNDUP
NATIONAL WEATHER SERVICE CHICAGO/ROMEOVILLE IL
300 PM CDT FRI SEP 21 2018

NOTE: "FAIR" INDICATES FEW OR NO CLOUDS BELOW 12,000 FEET WITH NO
SIGNIFICANT WEATHER AND/OR OBSTRUCTIONS TO VISIBILITY.

* THESE STATIONS ARE NOT UNDER NWS QUALITY CONTROL. THEY ALSO MAY NOT
  REPORT WEATHER SUCH AS PRECIPITATION OR FOG.


ILZ005-006-012>014-019>023-212100-
NORTHEAST ILLINOIS
  
CITY           SKY/WX    TMP DP  RH WIND       PRES   REMARKS
CHICAGO-OHARE  PTSUNNY   72  50  45 W17G30    29.98R                  
CHICAGO-MIDWAY PTSUNNY   75  51  43 W18G29    29.98R                  
AURORA         FAIR      73  52  47 W16G25    30.01R                  
LANSING*       FAIR      74  53  47 W20G26    29.99R                  
JOLIET*        FAIR      75  52  44 NW8G20    30.02R                  
WAUKEGAN       PTSUNNY   69  52  54 W8G24     29.97R                  
DUPAGE AIRPORT FAIR      72  51  47 NW17G30   30.00R                  
KANKAKEE*      FAIR      77  55  46 W17G24    30.01R                  
WHEELING       FAIR      72  51  47 NW18G26   30.00R                  
MORRIS*        FAIR      73  51  45 W18G28    30.01S                  
ROMEOVILLE*    FAIR      74  53  48 W14G24    30.01S                  
NORTHERLY ISL    N/A     74  49  41 W12         N/A                   
$$


SKY/WX - Weather  TMP - Temperature  DP - Dew Point  RH - Relative Humidity
WIND - Wind Direction/Speed PRES - Barometric Pressure